EN

Hourly Weather Dublin

Today, 18 September, Saturday

Time Temperature Precipitation Wind Pressure Humidity
00:00 +10°C° 0 mm 2 mps 743 mmHg 96%
01:00 +10°C° 0 mm 2 mps 743 mmHg 96%
02:00 +10°C° 0 mm 2 mps 743 mmHg 96%
03:00 +10°C° 0 mm 2 mps 743 mmHg 96%
04:00 +9°C° 0 mm 2 mps 743 mmHg 96%
05:00 +9°C° 0 mm 2 mps 743 mmHg 96%
06:00 +9°C° 0 mm 2 mps 743 mmHg 97%
07:00 +10°C° 0 mm 2 mps 744 mmHg 94%
08:00 +12°C° 0 mm 2 mps 744 mmHg 92%
09:00 +13°C° 0 mm 2 mps 744 mmHg 89%
10:00 +14°C° 0 mm 2 mps 744 mmHg 84%
11:00 +15°C° 0 mm 1 mps 744 mmHg 79%
12:00 +16°C° 0 mm 1 mps 744 mmHg 73%
13:00 +18°C° 0 mm 1 mps 743 mmHg 72%
14:00 +17°C° 0 mm 2 mps 743 mmHg 70%
15:00 +17°C° 0 mm 2 mps 743 mmHg 69%
16:00 +16°C° 0 mm 2 mps 743 mmHg 74%
17:00 +15°C° 0 mm 2 mps 742 mmHg 80%
18:00 +14°C° 0 mm 2 mps 742 mmHg 85%
19:00 +14°C° 0 mm 2 mps 742 mmHg 88%
20:00 +13°C° 0 mm 2 mps 742 mmHg 91%
21:00 +12°C° 0 mm 2 mps 743 mmHg 93%
22:00 +12°C° 0 mm 2 mps 742 mmHg 93%
23:00 +12°C° 0 mm 2 mps 742 mmHg 92%

Tomorrow, 19 September, Sunday

Time Temperature Precipitation Wind Pressure Humidity
00:00 +10°C° 0 mm 2 mps 742 mmHg 92%
01:00 +12°C° 0.1 mm 2 mps 742 mmHg 92%
02:00 +12°C° 0.1 mm 2 mps 742 mmHg 93%
03:00 +12°C° 0.1 mm 2 mps 742 mmHg 93%
04:00 +12°C° 0.3 mm 2 mps 743 mmHg 94%
05:00 +10°C° 0.3 mm 2 mps 743 mmHg 96%
06:00 +10°C° 0.3 mm 2 mps 743 mmHg 97%
07:00 +12°C° 0.1 mm 2 mps 744 mmHg 94%
08:00 +11°C° 0.1 mm 3 mps 744 mmHg 91%
09:00 +12°C° 0.1 mm 3 mps 745 mmHg 88%
10:00 +13°C° 0 mm 3 mps 745 mmHg 79%
11:00 +14°C° 0 mm 3 mps 745 mmHg 71%
12:00 +16°C° 0 mm 3 mps 745 mmHg 62%
13:00 +16°C° 0 mm 3 mps 746 mmHg 61%
14:00 +17°C° 0 mm 3 mps 746 mmHg 60%
15:00 +17°C° 0 mm 2 mps 746 mmHg 59%
16:00 +16°C° 0.1 mm 2 mps 746 mmHg 67%
17:00 +14°C° 0.1 mm 2 mps 747 mmHg 76%
18:00 +13°C° 0.1 mm 2 mps 747 mmHg 84%
19:00 +12°C° 0 mm 2 mps 748 mmHg 88%
20:00 +10°C° 0 mm 2 mps 748 mmHg 91%
21:00 +9°C° 0 mm 2 mps 749 mmHg 94%
22:00 +9°C° 0 mm 2 mps 749 mmHg 95%
23:00 +8°C° 0 mm 2 mps 749 mmHg 95%

Day after tomorrow, 20 September, Monday

Time Temperature Precipitation Wind Pressure Humidity
00:00 +8°C° 0 mm 2 mps 749 mmHg 95%
01:00 +8°C° 0 mm 3 mps 750 mmHg 95%
02:00 +8°C° 0 mm 3 mps 750 mmHg 95%
03:00 +7°C° 0 mm 3 mps 750 mmHg 95%
04:00 +7°C° 0 mm 2 mps 751 mmHg 95%
05:00 +7°C° 0 mm 2 mps 751 mmHg 94%
06:00 +7°C° 0 mm 2 mps 751 mmHg 94%
07:00 +9°C° 0 mm 2 mps 752 mmHg 90%
08:00 +12°C° 0 mm 2 mps 752 mmHg 86%
09:00 +13°C° 0 mm 2 mps 752 mmHg 82%
10:00 +15°C° 0 mm 2 mps 752 mmHg 79%
11:00 +16°C° 0 mm 2 mps 752 mmHg 76%
12:00 +17°C° 0 mm 2 mps 753 mmHg 73%
13:00 +17°C° 0 mm 2 mps 753 mmHg 72%
14:00 +17°C° 0 mm 3 mps 753 mmHg 72%
15:00 +18°C° 0 mm 3 mps 753 mmHg 71%
16:00 +17°C° 0 mm 2 mps 753 mmHg 75%
17:00 +16°C° 0 mm 2 mps 753 mmHg 79%
18:00 +16°C° 0 mm 2 mps 754 mmHg 83%
19:00 +15°C° 0 mm 2 mps 754 mmHg 86%
20:00 +15°C° 0 mm 2 mps 754 mmHg 89%
21:00 +14°C° 0 mm 2 mps 755 mmHg 91%
22:00 +13°C° 0 mm 2 mps 755 mmHg 93%
23:00 +13°C° 0 mm 2 mps 755 mmHg 95%

21 September, Tuesday

Time Temperature Precipitation Wind Pressure Humidity
00:00 +12°C° 0 mm 2 mps 755 mmHg 97%
01:00 +12°C° 0 mm 2 mps 755 mmHg 97%
02:00 +10°C° 0 mm 2 mps 755 mmHg 97%
03:00 +10°C° 0 mm 2 mps 755 mmHg 97%
04:00 +10°C° 0 mm 2 mps 755 mmHg 97%
05:00 +10°C° 0 mm 2 mps 755 mmHg 97%
06:00 +10°C° 0 mm 2 mps 755 mmHg 97%
07:00 +12°C° 0 mm 2 mps 755 mmHg 92%
08:00 +13°C° 0 mm 2 mps 756 mmHg 86%
09:00 +15°C° 0 mm 2 mps 756 mmHg 81%
10:00 +16°C° 0 mm 2 mps 756 mmHg 73%
11:00 +17°C° 0 mm 2 mps 756 mmHg 65%
12:00 +19°C° 0 mm 2 mps 756 mmHg 57%
13:00 +19°C° 0 mm 2 mps 756 mmHg 57%
14:00 +19°C° 0 mm 2 mps 756 mmHg 57%
15:00 +20°C° 0 mm 3 mps 756 mmHg 57%
16:00 +18°C° 0 mm 2 mps 755 mmHg 65%
17:00 +17°C° 0 mm 2 mps 755 mmHg 73%
18:00 +16°C° 0 mm 2 mps 755 mmHg 81%
19:00 +15°C° 0 mm 2 mps 755 mmHg 84%
20:00 +14°C° 0 mm 2 mps 755 mmHg 88%
21:00 +13°C° 0 mm 2 mps 755 mmHg 92%
22:00 +13°C° 0 mm 2 mps 755 mmHg 92%
23:00 +13°C° 0 mm 2 mps 755 mmHg 93%

22 September, Wednesday

Time Temperature Precipitation Wind Pressure Humidity
00:00 +13°C° 0 mm 2 mps 754 mmHg 94%
01:00 +13°C° 0 mm 2 mps 754 mmHg 94%
02:00 +12°C° 0 mm 2 mps 754 mmHg 94%
03:00 +12°C° 0 mm 2 mps 753 mmHg 94%
04:00 +11°C° 0 mm 3 mps 753 mmHg 95%
05:00 +11°C° 0 mm 3 mps 753 mmHg 96%
06:00 +11°C° 0 mm 3 mps 753 mmHg 97%
07:00 +12°C° 0 mm 3 mps 753 mmHg 92%
08:00 +13°C° 0 mm 4 mps 752 mmHg 87%
09:00 +13°C° 0 mm 5 mps 752 mmHg 82%
10:00 +14°C° 0 mm 5 mps 752 mmHg 78%
11:00 +15°C° 0 mm 5 mps 752 mmHg 74%
12:00 +16°C° 0 mm 5 mps 751 mmHg 70%
13:00 +17°C° 0 mm 5 mps 751 mmHg 71%
14:00 +17°C° 0 mm 6 mps 750 mmHg 73%
15:00 +17°C° 0 mm 6 mps 750 mmHg 74%
16:00 +16°C° 0.1 mm 6 mps 750 mmHg 79%
17:00 +16°C° 0.1 mm 5 mps 750 mmHg 84%
18:00 +15°C° 0.1 mm 5 mps 750 mmHg 89%
19:00 +14°C° 0.2 mm 5 mps 750 mmHg 89%
20:00 +13°C° 0.2 mm 4 mps 750 mmHg 89%
21:00 +12°C° 0.2 mm 4 mps 750 mmHg 89%
22:00 +11°C° 0 mm 4 mps 750 mmHg 89%
23:00 +8°C° 0 mm 4 mps 750 mmHg 89%

23 September, Thursday

Time Temperature Precipitation Wind Pressure Humidity
00:00 +7°C° 0 mm 4 mps 750 mmHg 89%
01:00 +7°C° 0 mm 4 mps 750 mmHg 91%
02:00 +7°C° 0 mm 4 mps 750 mmHg 92%
03:00 +7°C° 0 mm 3 mps 750 mmHg 93%
04:00 +8°C° 0 mm 3 mps 750 mmHg 93%
05:00 +8°C° 0 mm 3 mps 750 mmHg 92%
06:00 +9°C° 0 mm 3 mps 750 mmHg 91%
07:00 +10°C° 0 mm 4 mps 750 mmHg 87%
08:00 +11°C° 0 mm 4 mps 750 mmHg 84%
09:00 +11°C° 0 mm 4 mps 750 mmHg 81%
10:00 +12°C° 0 mm 4 mps 749 mmHg 77%
11:00 +13°C° 0 mm 5 mps 749 mmHg 73%
12:00 +14°C° 0 mm 5 mps 749 mmHg 69%
13:00 +14°C° 0 mm 5 mps 748 mmHg 71%
14:00 +14°C° 0 mm 5 mps 748 mmHg 74%
15:00 +14°C° 0 mm 5 mps 747 mmHg 77%
16:00 +14°C° 0 mm 5 mps 747 mmHg 79%
17:00 +13°C° 0 mm 6 mps 746 mmHg 82%
18:00 +13°C° 0 mm 6 mps 746 mmHg 84%
19:00 +12°C° 0 mm 7 mps 745 mmHg 85%
20:00 +11°C° 0 mm 7 mps 745 mmHg 87%
21:00 +11°C° 0 mm 7 mps 745 mmHg 88%
22:00 +11°C° 0 mm 7 mps 744 mmHg 88%
23:00 +11°C° 0 mm 7 mps 744 mmHg 87%
Show more

We Need Your Consent

Meteoprog and our Service Providers may store and access personal data such as cookies, device identifiers or other similar technologies on your device and process such data to personalise content and ads, as well as provide social media features and to analyse the traffic.

  • Store and/or access information on your device

    Cookies, device identifiers or other information can be stored or accessed on your device for the purposes indicated above.

  • Personalised ads and content, ad and content measurement, audience insights, and products development

    Ads and content can be personalised based on a profile. More data can be added to better personalise ads and content. Ad and content performance can be measured. Insights about the audience who saw the ads and content can be derived. Such data can be used to develop or improve user’s experience, systems and software.

By clicking ‘I Agree’ you will allow the use of indicated cookies, device identifiers, web beacons or other similar technologies. Your settings can be changed in the browser on your device.

For certain purposes, legitimate interests may be relied on, rather than consent. You can read more about this in our Privacy and Cookie Policy.